M.P.E.C. 2019-G01 Issued 2019 Apr. 1, 00:04 UT The Minor Planet Electronic Circulars contain information on unusual minor planets and routine data on comets. They are published on behalf of Division F of the International Astronomical Union by the Minor Planet Center, Smithsonian Astrophysical Observatory, Cambridge, MA 02138, U.S.A. Prepared using the Tamkin Foundation Computer Network MPC@CFA.HARVARD.EDU URL https://www.minorplanetcenter.net/ ISSN 1523-6714 2019 FD1 Observations: K19F01D C2019 03 28.29825609 48 45.628+00 31 10.31 19.3 GVEG001F51 K19F01D* C2019 03 28.30944 09 48 55.294+00 31 58.71 19.6 wUEG001F51 K19F01D C2019 03 28.32064 09 49 04.939+00 32 47.10 19.6 wUEG001F51 K19F01D C2019 03 28.33183109 49 14.599+00 33 35.46 19.1 GVEG001F51 K19F01D KC2019 03 28.83342509 56 43.61 +01 08 18.1 19.5 GVEG001J95 K19F01D KC2019 03 28.83641609 56 46.38 +01 08 39.3 19.5 VqEG001I93 K19F01D KC2019 03 28.83946 09 56 47.76 +01 08 50.9 19.8 GVEG001595 K19F01D KC2019 03 28.83980509 56 49.08 +01 08 44.9 19.2 GVEG001J95 K19F01D KC2019 03 28.84551 09 56 52.92 +01 09 15.9 19.3 GVEG001595 K19F01D KC2019 03 28.84653509 56 54.83 +01 09 13.2 19.9 GVEG001J95 K19F01D KC2019 03 28.84928609 56 57.28 +01 09 33.4 19.6 VqEG001I93 K19F01D KC2019 03 28.85137 09 56 57.82 +01 09 40.9 19.5 GVEG001595 K19F01D KC2019 03 28.85921 09 57 04.93 +01 10 12.8 19.3 GVEG001K38 K19F01D KC2019 03 28.86152609 57 07.69 +01 10 24.5 19.3 VqEG001I93 K19F01D KC2019 03 28.87372809 57 16.74 +01 11 14.4 20.0 GVEG001L01 K19F01D KC2019 03 28.87491809 57 17.75 +01 11 19.1 19.7 GVEG001L01 K19F01D KC2019 03 28.87610609 57 18.77 +01 11 23.8 19.4 GVEG001L01 K19F01D KC2019 03 28.87670209 57 19.27 +01 11 26.8 19.3 GVEG001L01 K19F01D KC2019 03 28.90235 09 57 41.42 +01 13 12.9 18.8 GVEG001K38 K19F01D KC2019 03 28.90748 09 57 46.50 +01 13 24.9 19.9 GVEG001Z99 K19F01D KC2019 03 28.90927 09 57 48.01 +01 13 32.6 19.8 GVEG001Z99 K19F01D KC2019 03 28.91116 09 57 49.65 +01 13 40.1 19.8 GVEG001Z99 K19F01D KC2019 03 28.91964 09 57 56.06 +01 14 23.6 19.2 GVEG001K38 K19F01D KC2019 03 28.93246 09 58 06.55 +01 15 20.7 19.2 VEG001104 K19F01D KC2019 03 28.93696 09 58 10.67 +01 15 36.6 19.3 GVEG001K38 K19F01D KC2019 03 28.94235009 58 16.13 +01 15 51.7 19.8 GVEG001Z80 K19F01D KC2019 03 28.94240 09 58 14.95 +01 16 02.5 VEG001104 K19F01D KC2019 03 28.95517 09 58 25.74 +01 16 55.8 VEG001104 K19F01D KC2019 03 28.96329709 58 33.87 +01 17 18.4 19.0 GVEG001Z80 K19F01D C2019 03 29.11709 10 00 52.47 +01 28 17.7 19.5 GVEG001G96 K19F01D C2019 03 29.12270 10 00 57.14 +01 28 40.9 19.3 GVEG001G96 K19F01D C2019 03 29.12832 10 01 01.85 +01 29 03.7 19.6 GVEG001G96 K19F01D KC2019 03 29.13027 10 01 02.85 +01 29 14.9 oEG001711 K19F01D KC2019 03 29.13276 10 01 04.94 +01 29 25.2 oEG001711 K19F01D C2019 03 29.13393 10 01 06.49 +01 29 27.1 19.2 GVEG001G96 K19F01D KC2019 03 29.13525 10 01 06.97 +01 29 35.4 oEG001711 K19F01D C2019 03 29.14579 10 01 16.34 +01 30 15.4 19.6 GVEG001I52 K19F01D C2019 03 29.14603 10 01 16.55 +01 30 16.3 19.4 GVEG001I52 K19F01D C2019 03 29.14627 10 01 16.74 +01 30 17.5 19.3 GVEG001I52 K19F01D C2019 03 29.14652 10 01 16.93 +01 30 18.2 19.3 GVEG001I52 K19F01D C2019 03 29.14676 10 01 17.16 +01 30 19.5 19.9 GVEG001I52 K19F01D C2019 03 29.14700 10 01 17.35 +01 30 20.3 19.0 GVEG001I52 K19F01D C2019 03 29.14725 10 01 17.55 +01 30 21.3 19.1 GVEG001I52 K19F01D C2019 03 29.14749 10 01 17.76 +01 30 22.3 18.8 GVEG001I52 K19F01D KC2019 03 29.82995410 10 54.96 +02 15 21.7 19.4 GVEG001587 K19F01D KC2019 03 29.83150510 10 56.19 +02 15 28.2 19.2 GVEG001587 K19F01D KC2019 03 29.83305610 10 57.42 +02 15 33.9 19.3 GVEG001587 K19F01D KC2019 03 29.84045 10 11 03.34 +02 15 58.7 18.9 GVEG001K87 K19F01D KC2019 03 29.84117 10 11 03.93 +02 16 01.6 19.4 GVEG001K87 K19F01D KC2019 03 29.84190 10 11 04.53 +02 16 04.2 18.7 GVEG001K87 K19F01D C2019 03 29.84891 10 11 09.90 +02 16 29.5 19.2 VVEG001033 K19F01D C2019 03 29.85011 10 11 10.88 +02 16 34.2 19.4 VVEG001033 K19F01D C2019 03 29.85130 10 11 11.83 +02 16 38.8 19.4 VVEG001033 K19F01D KC2019 03 29.87005410 11 27.41 +02 18 00.2 18.7 GVEG001C95 K19F01D C2019 03 29.87156 10 11 28.05 +02 17 57.2 19.5 VVEG001033 K19F01D C2019 03 29.87275 10 11 29.01 +02 18 01.9 19.4 VVEG001033 K19F01D C2019 03 29.87395 10 11 29.96 +02 18 06.6 19.4 VVEG001033 K19F01D KC2019 03 29.87797610 11 33.69 +02 18 30.4 18.9 GVEG001C95 K19F01D KC2019 03 29.88589910 11 40.01 +02 19 01.3 19.0 GVEG001C95 K19F01D KC2019 03 29.89415610 11 46.59 +02 19 32.9 19.6 GVEG001C95 K19F01D KC2019 03 29.92127 10 12 07.80 +02 21 16.9 19.6 RVEG001K63 K19F01D KC2019 03 29.92898310 12 14.95 +02 21 38.6 19.5 GVEG001J95 K19F01D KC2019 03 29.93166 10 12 16.07 +02 21 57.3 19.6 RVEG001K63 K19F01D KC2019 03 29.93343310 12 18.48 +02 21 55.2 19.4 GVEG001J95 K19F01D KC2019 03 29.93632 10 12 19.77 +02 22 14.1 19.1 RVEG001K63 K19F01D KC2019 03 29.93795510 12 22.08 +02 22 12.8 19.6 GVEG001J95 K19F01D C2019 03 30.12726 10 15 01.03 +02 34 41.6 19.3 GVEG001I52 K19F01D C2019 03 30.12801 10 15 01.57 +02 34 44.1 19.1 GVEG001I52 K19F01D KC2019 03 30.13352 10 15 05.30 +02 35 08.8 oEG001711 K19F01D C2019 03 30.13396 10 15 06.22 +02 35 06.5 18.9 GVEG001I52 K19F01D C2019 03 30.13421 10 15 06.47 +02 35 07.6 18.9 GVEG001I52 K19F01D KC2019 03 30.13598 10 15 07.24 +02 35 17.8 oEG001711 K19F01D KC2019 03 30.13839 10 15 09.11 +02 35 26.8 oEG001711 K19F01D KC2019 03 30.14084 10 15 11.01 +02 35 36.0 oEG001711 K19F01D KC2019 03 30.80304 10 23 58.93 +03 15 47.3 19.3 RqEG001A17 K19F01D KC2019 03 30.81120 10 24 05.12 +03 16 15.9 18.8 RqEG001A17 K19F01D KC2019 03 30.81935 10 24 11.30 +03 16 45.3 18.9 RqEG001A17 K19F01D C2019 03 30.82975 10 24 18.78 +03 17 23.5 VEG001246 K19F01D C2019 03 30.83054 10 24 19.41 +03 17 27.4 VEG001246 K19F01D C2019 03 30.83075 10 24 19.49 +03 17 28.3 VEG001246 K19F01D C2019 03 30.83086 10 24 19.65 +03 17 27.8 VEG001246 K19F01D C2019 03 30.83115 10 24 19.81 +03 17 30.0 VEG001246 K19F01D C2019 03 30.83125 10 24 19.82 +03 17 28.9 VEG001246 K19F01D KC2019 03 30.83468 10 24 22.75 +03 17 40.9 20.2 GVEG001K87 K19F01D KC2019 03 30.83525 10 24 23.20 +03 17 42.8 20.0 GVEG001K87 K19F01D KC2019 03 30.83583 10 24 23.61 +03 17 44.8 20.2 GVEG001K87 K19F01D KC2019 03 30.86205 10 24 43.43 +03 19 23.5 19.4 GVEG001203 K19F01D KC2019 03 30.87095 10 24 50.06 +03 19 54.6 19.0 GVEG001203 K19F01D KC2019 03 30.88100 10 24 57.58 +03 20 30.9 19.3 GVEG001203 K19F01D C2019 03 31.18030 10 28 48.76 +03 38 17.4 19.6 GVEG001I52 K19F01D C2019 03 31.18055 10 28 48.96 +03 38 18.1 19.6 GVEG001I52 K19F01D C2019 03 31.18079 10 28 49.17 +03 38 19.4 19.7 GVEG001I52 K19F01D C2019 03 31.18155 10 28 49.68 +03 38 21.4 19.4 GVEG001I52 K19F01D KC2019 03 31.19020 10 28 56.07 +03 38 52.7 19.4 RoEG001291 K19F01D KC2019 03 31.19175 10 28 57.18 +03 38 57.8 19.3 RoEG001291 K19F01D KC2019 03 31.19331 10 28 58.32 +03 39 03.4 19.4 RoEG001291 Observer details: 033 Karl Schwarzschild Observatory, Tautenburg. Observers U. Laux, B. Stecklum. Measurer B. Stecklum. 1.34-m f/3 Schmidt + CCD. 104 San Marcello Pistoiese. Observers P. Bacci, M. Maestripieri. Measurers P. Bacci, L. Tesi, G. Fagioli. 0.60-m reflector + CCD. 203 GiaGa Observatory. Observers S. Foglia, G. Galli. Measurer G. Galli. 0.36-m f/5.76 Schmidt-Cassegrain + CCD. 246 Klet Observatory-KLENOT. Observers M. Tichy, J. Ticha. 1.06-m f/5.2 reflector + 2048x2048 CCD. 291 LPL/Spacewatch II. Observer R. A. Mastaler. 1.8-m f/2.7 reflector + CCD. 587 Sormano. Observers M. Calcagno, A. Fumagalli, P. Sicoli, A. Testa. Measurer M. Calcagno. 0.5-m f/6.8 reflector + CCD. 595 Farra dIsonzo. Observers S. Aschi, L. Bittesini, F. Bressan, G. Ierman, U. Montanar, E. Pettarin. Measurer S. Aschi. 0.61-m f/4.5 reflector + CCD. 711 McDonald Observatory, Fort Davis. Observer J. G. Ries. 2.1-m reflector + CCD + focal reducer. A17 Guidestar Observatory, Weinheim. Observers M. Emmerich, S. Melchert. 0.36-m f/6 Schmidt-Cassegrain + CCD. C95 SATINO Remote Observatory, Haute Provence. Observer J. Jahn. 0.60-m f/3.2 Newtonian reflector + CCD. F51 Pan-STARRS 1, Haleakala. Observers J. Bulger, K. Chambers, T. Lowe, E. Magnier, A. Schultz, M. Willman. Measurers S. Chastel, M. Huber, Y. Ramanjooloo, R. Wainscoat, R. Weryk, K. Chambers, T. de Boer, L. Denneau, J. Fairlamb, H. Flewelling, C.-C. Lin, E. Magnier. 1.8-m Ritchey-Chretien + CCD. G96 Mt. Lemmon Survey. Observer B. M. Africano. Measurers B. M. Africano, E. J. Christensen, G. A. Farneth, D. C. Fuls, A. R. Gibbs, A. D. Grauer, H. Groeller, R. A. Kowalski, S. M. Larson, G. J. Leonard, T. A. Pruyne, R. L. Seaman, F. C. Shelly. 1.5-m reflector + 10K CCD. I52 Steward Observatory, Mt. Lemmon Station. Observer H. Groeller. Measurers B. M. Africano, E. J. Christensen, G. A. Farneth, D. C. Fuls, A. R. Gibbs, A. D. Grauer, H. Groeller, R. A. Kowalski, S. M. Larson, G. J. Leonard, T. A. Pruyne, R. L. Seaman, F. C. Shelly. 1.0-m reflector + CCD. I93 St Pardon de Conques. Observer F. Losse. 0.40-m f/3.7 reflector + CCD. J95 Great Shefford. Observer P. Birtwhistle. 0.41-m f/6.3 Schmidt-Cassegrain + CCD. K38 M57 Observatory, Saltrio. Observer G. Baj. 0.3-m f/5.5 Ritchey-Chretien + CCD. K63 G. Pascoli Observatory, Castelvecchio Pascoli. Observer R. Bacci. 0.41-m f/3.2 Newtonian reflector + CCD. K87 Dettelbach Vineyard Observatory. Observer B. Haeusler. 0.30-m Schmidt-Cassegrain + CCD. L01 Visnjan Observatory, Tican. Observers K. Korlevic, J. Mates. Measurer K. Korlevic. 1.0-m f/2.9 reflector + CCD. Z80 Northolt Branch Observatory. Observer G. Wells. Measurer D. Bamberger. 0.25-m f/8.0 Ritchey-Chretien + CCD. Z99 Clixby Observatory, Cleethorpes. Observer A. Mickleburgh. 0.36-m f/8 Schmidt-Cassegrain + CCD. Orbital elements: 2019 FD1 Earth MOID = 0.0522 AU Epoch 2019 Apr. 27.0 TT = JDT 2458600.5 MPC M 26.36667 (2000.0) P Q n 0.40180525 Peri. 312.11616 -0.79101518 -0.61118624 a 1.8188309 Node 190.31027 +0.59665494 -0.76079519 e 0.4634516 Incl. 8.78010 +0.13526963 -0.21827061 P 2.45 H 23.4 G 0.15 U 7 Residuals in seconds of arc 190328 F51 0.2- 0.1- 190329 711 0.0 0.1+ 190329 K63 (1.0+ 1.6-) 190328 F51 0.1+ 0.0 190329 711 0.4+ 0.2+ 190329 J95 0.3- 0.1- 190328 F51 0.0 0.0 190329 G96 0.0 0.3+ 190330 I52 0.6+ 0.2+ 190328 F51 0.3+ 0.1+ 190329 711 0.1- 0.3+ 190330 I52 0.1- 0.2- 190328 J95 0.4- 0.3- 190329 I52 0.0 0.0 190330 711 0.4- 0.7+ 190328 I93 0.5+ 0.3- 190329 I52 0.2+ 0.1- 190330 I52 0.3- 0.4- 190328 595 0.2+ 0.3+ 190329 I52 0.0 0.2+ 190330 I52 0.5+ 0.2- 190328 J95 0.1- 0.1- 190329 I52 0.2- 0.2- 190330 711 0.1- 0.3+ 190328 595 0.6+ 0.0 190329 I52 0.2+ 0.2+ 190330 711 0.2- 0.2+ 190328 J95 0.0 0.1+ 190329 I52 0.1+ 0.0 190330 711 0.4- 0.1+ 190328 I93 0.0 0.0 190329 I52 0.0 0.1- 190330 A17 0.5- 0.1+ 190328 595 0.4- 0.6+ 190329 I52 0.2+ 0.0 190330 A17 0.2- 0.6- 190328 K38 0.7+ 0.3- 190329 587 0.7- 0.6- 190330 A17 0.2+ 0.4- 190328 I93 0.5+ 0.1+ 190329 587 0.8- 0.2- 190330 246 0.5+ 0.3- 190328 L01 0.3- 0.1+ 190329 587 1.0- 0.5- 190330 246 1.1+ 0.8+ 190328 L01 0.2- 0.2- 190329 K87 1.3+ 0.5+ 190330 246 0.1- 0.9+ 190328 L01 0.0 0.4- 190329 K87 (1.5+ 0.6+) 190330 246 1.1+ 0.0 190328 L01 0.1- 0.1+ 190329 K87 (1.7+ 0.4+) 190330 246 0.2+ 1.2+ 190328 K38 0.4+ 0.3+ 190329 033 0.0 0.1- 190330 246 0.8- 0.3- 190328 Z99 0.5- 0.3+ 190329 033 0.3+ 0.1- 190330 K87 0.3+ 0.7+ 190328 Z99 0.7- 0.6+ 190329 033 0.2+ 0.1- 190330 K87 0.6+ 0.5+ 190328 Z99 0.1- 0.3+ 190329 C95 0.6+ 0.2- 190330 K87 0.2+ 0.5+ 190328 K38 0.7+ 0.8- 190329 033 0.0 0.2- 190330 203 0.2- 0.4+ 190328 104 1.4- 0.8+ 190329 033 0.1+ 0.1- 190330 203 0.5- 0.2- 190328 K38 0.2+ 0.4+ 190329 033 0.0 0.0 190330 203 0.4- 0.3+ 190328 Z80 0.3+ 0.2+ 190329 C95 0.1+ 0.7- 190331 I52 0.5- 0.2- 190328 104 1.4- 1.4+ 190329 C95 0.3+ 0.4- 190331 I52 0.2- 0.4- 190328 104 (1.6- 1.8+) 190329 C95 0.4+ 0.7- 190331 I52 0.3+ 0.1+ 190328 Z80 0.1+ 0.2+ 190329 K63 1.1+ 1.0- 190331 I52 0.4- 0.5- 190329 G96 0.1+ 0.1- 190329 J95 0.2+ 0.2+ 190331 291 0.0 0.1+ 190329 G96 0.0 0.1+ 190329 K63 1.2+ 0.5- 190331 291 0.2- 0.2- 190329 G96 0.4+ 0.2- 190329 J95 0.2- 0.3- 190331 291 0.1- 0.1+ Ephemeris: 2019 FD1 a,e,i = 1.82, 0.46, 9 q = 0.9759 Date TT R. A. (2000) Decl. Delta r Elong. Phase V 2019 03 02 04 27 13.2 -18 02 51 0.1396 0.9824 82.5 89.4 22.2 ... 2019 03 17 06 43 15.5 -12 58 20 0.08311 1.0179 103.9 71.6 20.5 ... 2019 03 25 08 55 23.2 -03 43 47 0.07588 1.0478 130.4 46.5 19.7 ... 2019 03 31 10 26 28.8 +03 28 34 0.08892 1.0744 146.9 30.5 19.6 2019 04 01 10 38 53.0 +04 24 27 0.09242 1.0791 148.7 28.8 19.7 2019 04 02 10 50 26.8 +05 15 06 0.09622 1.0839 150.2 27.3 19.7 ... 2019 04 08 11 44 18.3 +08 44 04 0.1241 1.1144 154.5 22.7 20.2 ... 2019 04 16 12 27 28.9 +10 35 43 0.1708 1.1588 153.6 22.6 21.0 ... 2019 05 01 13 08 54.6 +10 27 44 0.2771 1.2502 147.6 25.6 22.3 (Last issue was M.P.E.C. 2019-F159) A. U. Tomatic (C) Copyright 2019 MPC M.P.E.C. 2019-G01
